When you browse on this site, cookies collect data to enhance your experience and personalize the content and advertising you see.
Visit our Privacy Policy to learn more. By continuing to use the site, you agree to this use of cookies and data.
  • In Germany
  • List of Countries
  • For 7 days
  • Water Temperature
  • Satellite Maps
  • Weather Map
  • Weather Widgets
  • user-avatar
    Login

    Hourly Weather Port Said

    Today, 22 January, Tuesday

    Time Temperature Precipitation Wind Pressure Humidity
    00:00 +14°C° 0 mm 3 mps 762 mmHg 65%
    01:00 +15°C° 0 mm 2 mps 762 mmHg 66%
    02:00 +15°C° 0 mm 2 mps 762 mmHg 67%
    03:00 +14°C° 0 mm 2 mps 762 mmHg 70%
    04:00 +14°C° 0 mm 2 mps 762 mmHg 73%
    05:00 +14°C° 0 mm 2 mps 762 mmHg 76%
    06:00 +14°C° 0 mm 2 mps 762 mmHg 74%
    07:00 +15°C° 0 mm 2 mps 762 mmHg 72%
    08:00 +16°C° 0 mm 3 mps 762 mmHg 70%
    09:00 +17°C° 0 mm 3 mps 762 mmHg 64%
    10:00 +18°C° 0 mm 3 mps 763 mmHg 57%
    11:00 +20°C° 0 mm 3 mps 763 mmHg 51%
    12:00 +20°C° 0 mm 4 mps 763 mmHg 49%
    13:00 +21°C° 0 mm 4 mps 763 mmHg 48%
    14:00 +21°C° 0 mm 4 mps 762 mmHg 46%
    15:00 +20°C° 0 mm 4 mps 762 mmHg 51%
    16:00 +19°C° 0 mm 4 mps 762 mmHg 57%
    17:00 +17°C° 0 mm 5 mps 762 mmHg 63%
    18:00 +18°C° 0 mm 4 mps 762 mmHg 66%
    19:00 +17°C° 0 mm 4 mps 763 mmHg 70%
    20:00 +16°C° 0 mm 3 mps 763 mmHg 74%
    21:00 +16°C° 0 mm 3 mps 763 mmHg 75%
    22:00 +16°C° 0 mm 3 mps 763 mmHg 76%
    23:00 +16°C° 0 mm 2 mps 763 mmHg 77%

    Tomorrow, 23 January, Wednesday

    Time Temperature Precipitation Wind Pressure Humidity
    00:00 +15°C° 0 mm 2 mps 763 mmHg 78%
    01:00 +15°C° 0 mm 2 mps 763 mmHg 79%
    02:00 +15°C° 0 mm 2 mps 762 mmHg 80%
    03:00 +14°C° 0 mm 2 mps 762 mmHg 80%
    04:00 +13°C° 0 mm 3 mps 762 mmHg 81%
    05:00 +13°C° 0 mm 3 mps 762 mmHg 81%
    06:00 +13°C° 0 mm 3 mps 762 mmHg 78%
    07:00 +14°C° 0 mm 3 mps 762 mmHg 74%
    08:00 +14°C° 0 mm 3 mps 762 mmHg 71%
    09:00 +15°C° 0 mm 4 mps 761 mmHg 62%
    10:00 +18°C° 0 mm 4 mps 761 mmHg 54%
    11:00 +19°C° 0 mm 5 mps 761 mmHg 45%
    12:00 +20°C° 0 mm 5 mps 760 mmHg 42%
    13:00 +21°C° 0 mm 5 mps 759 mmHg 38%
    14:00 +21°C° 0 mm 6 mps 759 mmHg 35%
    15:00 +21°C° 0 mm 6 mps 758 mmHg 36%
    16:00 +20°C° 0 mm 6 mps 758 mmHg 38%
    17:00 +20°C° 0 mm 6 mps 758 mmHg 39%
    18:00 +19°C° 0 mm 6 mps 758 mmHg 42%
    19:00 +17°C° 0 mm 6 mps 758 mmHg 45%
    20:00 +16°C° 0 mm 6 mps 757 mmHg 48%
    21:00 +16°C° 0 mm 6 mps 757 mmHg 44%
    22:00 +16°C° 0 mm 6 mps 757 mmHg 40%
    23:00 +15°C° 0 mm 6 mps 757 mmHg 35%

    Day after tomorrow, 24 January, Thursday

    Time Temperature Precipitation Wind Pressure Humidity
    00:00 +15°C° 0 mm 6 mps 757 mmHg 34%
    01:00 +15°C° 0 mm 6 mps 756 mmHg 33%
    02:00 +15°C° 0 mm 6 mps 756 mmHg 32%
    03:00 +15°C° 0 mm 7 mps 755 mmHg 34%
    04:00 +15°C° 0 mm 7 mps 755 mmHg 36%
    05:00 +15°C° 0 mm 8 mps 755 mmHg 38%
    06:00 +16°C° 0 mm 8 mps 755 mmHg 37%
    07:00 +17°C° 0 mm 8 mps 755 mmHg 37%
    08:00 +17°C° 0 mm 9 mps 755 mmHg 36%
    09:00 +19°C° 0 mm 9 mps 755 mmHg 27%
    10:00 +22°C° 0 mm 8 mps 756 mmHg 19%
    11:00 +24°C° 0 mm 8 mps 756 mmHg 10%
    12:00 +24°C° 0 mm 8 mps 756 mmHg 12%
    13:00 +23°C° 0 mm 8 mps 756 mmHg 14%
    14:00 +23°C° 0 mm 7 mps 756 mmHg 16%
    15:00 +23°C° 0 mm 7 mps 756 mmHg 17%
    16:00 +22°C° 0 mm 6 mps 757 mmHg 18%
    17:00 +21°C° 0 mm 6 mps 757 mmHg 19%
    18:00 +19°C° 0 mm 5 mps 758 mmHg 22%
    19:00 +18°C° 0 mm 4 mps 759 mmHg 24%
    20:00 +15°C° 0 mm 4 mps 759 mmHg 27%
    21:00 +14°C° 0 mm 3 mps 760 mmHg 28%
    22:00 +14°C° 0 mm 3 mps 760 mmHg 30%
    23:00 +14°C° 0 mm 2 mps 760 mmHg 32%

    25 January, Friday

    Time Temperature Precipitation Wind Pressure Humidity
    00:00 +13°C° 0 mm 2 mps 760 mmHg 33%
    01:00 +13°C° 0 mm 1 mps 760 mmHg 35%
    02:00 +12°C° 0 mm 1 mps 760 mmHg 36%
    03:00 +12°C° 0 mm 1 mps 760 mmHg 36%
    04:00 +12°C° 0 mm 2 mps 760 mmHg 35%
    05:00 +12°C° 0 mm 2 mps 759 mmHg 35%
    06:00 +13°C° 0 mm 2 mps 760 mmHg 32%
    07:00 +13°C° 0 mm 2 mps 760 mmHg 30%
    08:00 +14°C° 0 mm 2 mps 760 mmHg 28%
    09:00 +16°C° 0 mm 3 mps 760 mmHg 25%
    10:00 +18°C° 0 mm 3 mps 760 mmHg 22%
    11:00 +20°C° 0 mm 3 mps 760 mmHg 19%
    12:00 +21°C° 0 mm 3 mps 759 mmHg 17%
    13:00 +22°C° 0 mm 4 mps 759 mmHg 16%
    14:00 +23°C° 0 mm 4 mps 758 mmHg 14%
    15:00 +22°C° 0 mm 4 mps 758 mmHg 14%
    16:00 +22°C° 0 mm 4 mps 757 mmHg 14%
    17:00 +22°C° 0 mm 4 mps 757 mmHg 13%
    18:00 +20°C° 0 mm 4 mps 757 mmHg 15%
    19:00 +19°C° 0 mm 4 mps 757 mmHg 16%
    20:00 +18°C° 0 mm 4 mps 758 mmHg 17%
    21:00 +18°C° 0 mm 4 mps 758 mmHg 18%
    22:00 +16°C° 0 mm 5 mps 758 mmHg 19%
    23:00 +16°C° 0 mm 5 mps 757 mmHg 20%

    26 January, Saturday

    Time Temperature Precipitation Wind Pressure Humidity
    00:00 +15°C° 0 mm 5 mps 757 mmHg 21%
    01:00 +15°C° 0 mm 5 mps 757 mmHg 21%
    02:00 +15°C° 0 mm 5 mps 757 mmHg 21%
    03:00 +14°C° 0 mm 6 mps 757 mmHg 21%
    04:00 +14°C° 0 mm 6 mps 756 mmHg 22%
    05:00 +14°C° 0 mm 6 mps 756 mmHg 22%
    06:00 +14°C° 0 mm 6 mps 757 mmHg 21%
    07:00 +15°C° 0 mm 6 mps 757 mmHg 21%
    08:00 +15°C° 0 mm 6 mps 757 mmHg 20%
    09:00 +17°C° 0 mm 6 mps 757 mmHg 18%
    10:00 +21°C° 0 mm 7 mps 758 mmHg 16%
    11:00 +23°C° 0 mm 7 mps 758 mmHg 14%
    12:00 +24°C° 0 mm 7 mps 757 mmHg 14%
    13:00 +24°C° 0 mm 7 mps 757 mmHg 15%
    14:00 +26°C° 0 mm 7 mps 757 mmHg 15%
    15:00 +24°C° 0 mm 7 mps 757 mmHg 15%
    16:00 +23°C° 0 mm 6 mps 757 mmHg 15%
    17:00 +22°C° 0 mm 5 mps 757 mmHg 15%
    18:00 +20°C° 0 mm 5 mps 757 mmHg 16%
    19:00 +17°C° 0 mm 5 mps 758 mmHg 17%
    20:00 +17°C° 0 mm 4 mps 758 mmHg 18%
    21:00 +15°C° 0 mm 4 mps 758 mmHg 20%
    22:00 +14°C° 0 mm 4 mps 759 mmHg 22%
    23:00 +13°C° 0 mm 3 mps 759 mmHg 23%

    27 January, Sunday

    Time Temperature Precipitation Wind Pressure Humidity
    00:00 +13°C° 0 mm 3 mps 759 mmHg 24%
    01:00 +13°C° 0 mm 3 mps 759 mmHg 25%
    02:00 +12°C° 0 mm 3 mps 759 mmHg 26%
    03:00 +12°C° 0 mm 3 mps 759 mmHg 26%
    04:00 +12°C° 0 mm 3 mps 759 mmHg 26%
    05:00 +11°C° 0 mm 3 mps 758 mmHg 26%
    06:00 +12°C° 0 mm 4 mps 759 mmHg 25%
    07:00 +12°C° 0 mm 4 mps 759 mmHg 24%
    08:00 +13°C° 0 mm 5 mps 759 mmHg 24%
    09:00 +15°C° 0 mm 6 mps 759 mmHg 21%
    10:00 +17°C° 0 mm 7 mps 759 mmHg 19%
    11:00 +21°C° 0 mm 8 mps 759 mmHg 17%
    12:00 +21°C° 0 mm 8 mps 759 mmHg 15%
    13:00 +22°C° 0 mm 9 mps 759 mmHg 13%
    14:00 +22°C° 0 mm 9 mps 758 mmHg 11%
    15:00 +21°C° 0 mm 8 mps 759 mmHg 12%
    16:00 +20°C° 0 mm 7 mps 759 mmHg 13%
    17:00 +20°C° 0 mm 6 mps 759 mmHg 13%
    18:00 +17°C° 0 mm 6 mps 760 mmHg 16%
    19:00 +16°C° 0 mm 6 mps 760 mmHg 18%
    20:00 +14°C° 0 mm 6 mps 761 mmHg 21%
    21:00 +13°C° 0 mm 6 mps 761 mmHg 22%
    22:00 +13°C° 0 mm 5 mps 762 mmHg 24%
    23:00 +12°C° 0 mm 5 mps 762 mmHg 26%
    Show more